OBJECT_NAME,OBJECT_ID,EPOCH,MEAN_MOTION,ECCENTRICITY,INCLINATION,RA_OF_ASC_NODE,ARG_OF_PERICENTER,MEAN_ANOMALY,EPHEMERIS_TYPE,CLASSIFICATION_TYPE,NORAD_CAT_ID,ELEMENT_SET_NO,REV_AT_EPOCH,BSTAR,MEAN_MOTION_DOT,MEAN_MOTION_DDOT GSAT0101 (GALILEO-PFM),2011-060A,2026-09-11T15:54:44.036352,1.70475619,.00002522,56.9594,339.4167,59.2386,300.8114,0,U,37846,999,9259,0,-.103E-5,0 GSAT0102 (GALILEO-FM2),2011-060B,2026-09-03T10:17:32.822304,1.70475714,.0001594,56.9635,339.6410,329.3167,62.9507,0,U,37847,999,9246,0,-.84E-6,0 GSAT0103 (GALILEO-FM3),2012-055A,2026-09-11T16:53:55.952448,1.70473471,.00020469,55.8600,99.1697,315.2788,44.7968,0,U,38857,999,8648,0,.15E-6,0 GSAT0201 (GALILEO 5),2014-050A,2026-09-12T04:38:39.647616,1.85519597,.16863369,48.7843,269.8594,182.7547,176.1917,0,U,40128,999,7993,0,-.34E-6,0 GSAT0202 (GALILEO 6),2014-050B,2026-09-11T08:53:55.337568,1.85520202,.16877405,48.8022,268.9798,183.4320,175.2535,0,U,40129,999,8208,0,-.29E-6,0 GSAT0203 (GALILEO 7),2015-017A,2026-09-09T02:15:32.037120,1.70476378,.000446,56.7527,339.3092,251.6359,108.3566,0,U,40544,999,7063,0,-.1E-5,0 GSAT0204 (GALILEO 8),2015-017B,2026-09-11T16:42:58.663584,1.70475843,.00048357,56.7582,339.2572,241.3315,118.6677,0,U,40545,999,3372,0,-.103E-5,0 GSAT0206 (GALILEO 10),2015-045B,2026-09-11T02:21:44.065152,1.70473136,.00025404,54.9256,219.2330,349.0399,10.9008,0,U,40890,999,6850,0,-.2E-7,0 GSAT0209 (GALILEO 12),2015-079A,2026-09-10T02:15:20.222784,1.70473608,.00036987,55.8813,98.9312,16.5279,343.5809,0,U,41174,999,6622,0,.21E-6,0 GSAT0208 (GALILEO 11),2015-079B,2026-09-10T21:37:29.789472,1.70473654,.00051705,55.8790,98.9063,45.8921,314.2454,0,U,41175,999,6665,0,.18E-6,0 GSAT0211 (GALILEO 14),2016-030A,2026-09-11T14:39:28.172736,1.70473146,.0003775,55.0761,219.3188,332.6530,27.2735,0,U,41549,999,6414,0,-.1E-7,0 GSAT0210 (GALILEO 13),2016-030B,2026-09-11T06:45:02.825280,1.70473599,.0004075,55.0753,219.3259,253.3502,106.5514,0,U,41550,999,6413,0,-.2E-7,0 GSAT0207 (GALILEO 15),2016-069A,2026-09-11T13:26:53.992896,1.70473750,.00030374,55.5533,98.6945,359.7632,0.3287,0,U,41859,999,6087,0,.15E-6,0 GSAT0212 (GALILEO 16),2016-069B,2026-09-10T05:46:21.372960,1.70473888,.0003965,55.5502,98.7259,39.3601,320.7650,0,U,41860,999,6110,0,.19E-6,0 GSAT0213 (GALILEO 17),2016-069C,2026-09-08T20:20:49.486272,1.70474341,.00021681,55.5520,98.7726,331.3762,28.7083,0,U,41861,999,6094,0,.21E-6,0 GSAT0214 (GALILEO 18),2016-069D,2026-09-10T04:00:59.530752,1.70474047,.00023729,55.5429,98.7287,358.3065,1.7890,0,U,41862,999,6109,0,.2E-6,0 GSAT0215 (GALILEO 19),2017-079A,2026-09-11T05:49:50.115360,1.70473895,.00033461,55.0541,219.1395,281.3163,78.5923,0,U,43055,999,5445,0,-.2E-7,0 GSAT0216 (GALILEO 20),2017-079B,2026-09-11T12:49:01.212384,1.70473999,.00046117,55.0545,219.1316,288.6464,71.2497,0,U,43056,999,5447,0,-.1E-7,0 GSAT0217 (GALILEO 21),2017-079C,2026-09-11T04:02:19.710816,1.70473968,.00040796,55.0524,219.1392,302.5197,57.3871,0,U,43057,999,5445,0,-.2E-7,0 GSAT0218 (GALILEO 22),2017-079D,2026-09-11T09:19:14.475072,1.70473958,.0005052,55.0528,219.1309,284.2678,75.6223,0,U,43058,999,5448,0,-.2E-7,0 GSAT0221 (GALILEO 25),2018-060A,2026-09-10T02:52:12.488736,1.70476218,.0004384,57.1351,339.4875,269.9725,90.0208,0,U,43564,999,5061,0,-.101E-5,0 GSAT0222 (GALILEO 26),2018-060B,2026-09-06T05:35:54.496896,1.70475955,.000458,57.1403,339.5966,241.9595,118.0319,0,U,43565,999,5059,0,-.93E-6,0 GSAT0219 (GALILEO 23),2018-060C,2026-08-30T09:57:42.200928,1.70476242,.00035149,57.1426,339.7826,273.9182,86.0846,0,U,43566,999,5045,0,-.76E-6,0 GSAT0220 (GALILEO 24),2018-060D,2026-09-10T04:40:15.337344,1.70475942,.00036776,57.1370,339.4905,268.4040,91.5976,0,U,43567,999,5062,0,-.101E-5,0 GSAT0223 (GALILEO 27),2021-116A,2026-09-08T09:15:31.398048,1.70476049,.00039553,57.1270,339.4281,220.3982,200.3753,0,U,49809,999,2960,0,-.99E-6,0 GSAT0224 (GALILEO 28),2021-116B,2026-09-12T04:57:18.257184,1.70476350,.0003182,57.1262,339.3236,214.6681,143.5941,0,U,49810,999,2968,0,-.103E-5,0 GSAT0225 (GALILEO 29),2024-079A,2026-09-11T22:18:26.505216,1.70474149,.00013459,55.1754,98.6543,119.7816,61.6279,0,U,59598,999,1479,0,.12E-6,0 GSAT0227 (GALILEO 30),2024-079C,2026-09-11T05:32:31.864704,1.70474135,.00041437,55.1701,98.6721,92.2332,267.9075,0,U,59600,999,1483,0,.15E-6,0 GSAT0232 (GALILEO 32),2024-167A,2026-09-12T01:13:47.191296,1.70473627,.00056213,55.1656,218.9315,235.9553,123.2359,0,U,61182,999,1235,0,.1E-7,0 GSAT0226 (GALILEO 31),2024-167B,2026-09-11T07:40:24.494880,1.70473586,.00025111,55.1647,218.9588,247.1445,114.4318,0,U,61183,999,1232,0,-.2E-7,0 GSAT0233 (GALILEO 33),2025-302A,2026-09-11T03:57:18.785664,1.70474110,.00028117,54.3907,99.6797,137.8820,225.2404,0,U,67160,999,459,0,.14E-6,0 GSAT0234 (GALILEO 34),2025-302C,2026-09-11T03:48:38.909088,1.70474090,.00005097,54.3927,99.6790,35.7866,143.7414,0,U,67162,999,464,0,.14E-6,0